Location: Unspecified
(0.0000°N, 0.0000°E)
Time: 01:00:29
(UTC+00:00)

deb Explorer IX - Pass Details

Date: 14 December 2018
Orbit: 538 x 1115 km, 38.8° (Epoch: 17 January)

Event Time Altitude Azimuth Distance (km) Brightness Sun altitude
Rises 16:16:30 0° 258° (WSW) 3,257 ? 22.5°
Reaches altitude 10° 16:19:58 10° 278° (W) 2,199 ? 21.7°
Maximum altitude 16:23:08 16° 317° (NW) 1,694 ? 21.0°
Drops below altitude 10° 16:26:03 10° 357° (N) 1,989 ? 20.3°
Sets 16:28:59 0° 19° (NNE) 2,805 ? 19.6°
